Regional Weather Roundup
Issued by NWS

Home | Current Version | Previous Version | Text Only | Print | Product List | Glossary Off
Versions: 1 2 3 4 5 6 7 8 9 10 11 12 13 14 15 16 17 18 19 20 21 22 23 24 25 26 27 28 29 30 31 32 33 34 35 36 37 38 39 40 41 42 43 44 45 46 47 48 49 50

000
ASUS43 KMKX 260621
RWRWI

WISCONSIN REGIONAL WEATHER ROUNDUP
NATIONAL WEATHER SERVICE MILWAUKEE/SULLIVAN WI
1200 AM CST WED NOV 26 2014

NOTE: "FAIR" INDICATES FEW OR NO CLOUDS BELOW 12,000 FEET WITH NO
SIGNIFICANT WEATHER AND/OR OBSTRUCTIONS TO VISIBILITY.

WIZ001-002-006>008-014>016-023>028-260700-
NORTHWEST WISCONSIN

CITY           SKY/WX    TMP DP  RH WIND       PRES   REMARKS
SUPERIOR ARPT  CLOUDY    19  14  79 CALM      30.11R
6HR MIN TEMP:  16; 6HR MAX TEMP:  19;

ASHLAND        CLOUDY    14  11  87 CALM      30.11R
6HR MIN TEMP:  10; 6HR MAX TEMP:  14;

HAYWARD        CLOUDY    19  15  84 S3        30.07S
6HR MIN TEMP:  13; 6HR MAX TEMP:  19;

SIREN          CLOUDY    21  17  83 E3        30.08R
6HR MIN TEMP:  20; 6HR MAX TEMP:  21;

CUMBERLAND     CLOUDY    21  16  79 SE5       30.05S WCI  15
RICE LAKE      CLOUDY    22  17  80 SE5       30.08S WCI  16
6HR MIN TEMP:  21; 6HR MAX TEMP:  22;

CHETEK         CLOUDY    22  17  81 CALM      30.08R
6HR MIN TEMP:  20; 6HR MAX TEMP:  22;

LADYSMITH      CLOUDY    21  17  83 E3        30.09R
6HR MIN TEMP:  20; 6HR MAX TEMP:  21;

EAU CLAIRE     CLOUDY    22  15  75 SE3       30.09R
6HR MIN TEMP:  22; 6HR MAX TEMP:  23;

MENOMONIE      CLOUDY    24  18  79 CALM      30.08S
6HR MIN TEMP:  23; 6HR MAX TEMP:  24;

NEW RICHMOND   CLOUDY    24  18  77 SE5       30.06R WCI  18
6HR MIN TEMP:  22; 6HR MAX TEMP:  24;

OSCEOLA        CLOUDY    25  19  78 E7        30.08S WCI  17
6HR MIN TEMP:  22; 6HR MAX TEMP:  25;

$$

WIZ003>005-009-010-017-018-260700-
NORTH CENTRAL WISCONSIN

CITY           SKY/WX    TMP DP  RH WIND       PRES   REMARKS
MANITOWISH WTR CLOUDY     1  -2  88 CALM      30.07R
6HR MIN TEMP:  -1; 6HR MAX TEMP:   8;

ARBOR VITAE    CLOUDY     9   6  87 CALM      30.06S
6HR MIN TEMP:   4; 6HR MAX TEMP:  13;

WOODRUFF       CLOUDY     9   6  87 CALM      30.06S
6HR MIN TEMP:   4; 6HR MAX TEMP:  13;

RHINELANDER    CLOUDY     5   2  87 CALM      30.09R
6HR MIN TEMP:  -2; 6HR MAX TEMP:  10;

EAGLE RIVER    PTCLDY     0  -4  82 CALM      30.08R
6HR MIN TEMP:  -2; 6HR MAX TEMP:   9;

LAND O LAKES   CLEAR     -6 -10  83 CALM      30.08R
6HR MIN TEMP:  -7; 6HR MAX TEMP:   6;

PHILLIPS       CLOUDY    15  12  90 CALM      30.06S
6HR MIN TEMP:   7; 6HR MAX TEMP:  15;

TOMAHAWK       CLOUDY    10   8  91 CALM      30.09R
6HR MIN TEMP:  -1; 6HR MAX TEMP:  10;

MEDFORD        CLOUDY    19  16  85 SE6       30.06S WCI  11
6HR MIN TEMP:  15; 6HR MAX TEMP:  20;

MERRILL        CLOUDY    10   8  90 CALM      30.10S
6HR MIN TEMP:   4; 6HR MAX TEMP:  15;

$$

WIZ029-030-035-036-043>047-260700-
CENTRAL WISCONSIN

CITY           SKY/WX    TMP DP  RH WIND       PRES   REMARKS
WAUSAU         CLOUDY    12  10  92 E6        30.10R WCI   3
6HR MIN TEMP:   9; 6HR MAX TEMP:  16;

MOSINEE        CLOUDY    12  12 100 E3        30.11S
MARSHFIELD     CLOUDY    21  15  78 SE3       30.09R
6HR MIN TEMP:  19; 6HR MAX TEMP:  21;

STEVENS POINT  CLOUDY     9   7  90 CALM      30.13S
6HR MIN TEMP:   2; 6HR MAX TEMP:  11;

WAUPACA        PTCLDY     9   5  85 CALM      30.16S
6HR MIN TEMP:   9; 6HR MAX TEMP:  18;

WAUTOMA        CLOUDY     5   1  83 CALM      30.16R
6HR MIN TEMP:   2; 6HR MAX TEMP:  14;

WISC RAPIDS    CLOUDY    18  13  80 CALM      30.13S
6HR MIN TEMP:  13; 6HR MAX TEMP:  18;

CAMP DOUGLAS   PTCLDY    15  15 100 CALM      30.12S
6HR MIN TEMP:   7; 6HR MAX TEMP:  16;

$$

WIZ011>013-019>022-031-037>040-048>050-260700-
NORTHEAST WISCONSIN

CITY           SKY/WX    TMP DP  RH WIND       PRES   REMARKS
ANTIGO         CLOUDY    -4  -8  85 CALM      30.10S
6HR MIN TEMP:  -7; 6HR MAX TEMP:   8;

SHAWANO        CLEAR     10   7  87 CALM      30.17R
6HR MIN TEMP:   9; 6HR MAX TEMP:  20;

OCONTO         PTCLDY    12  11  96 CALM      30.18R
6HR MIN TEMP:  11; 6HR MAX TEMP:  22;

STURGEON BAY   CLOUDY    21  12  68 CALM      30.18R
6HR MIN TEMP:  21; 6HR MAX TEMP:  25;

GREEN BAY      PTCLDY    12  11  95 CALM      30.18R FOG
6HR MIN TEMP:  12; 6HR MAX TEMP:  22;

MANITOWOC      CLOUDY    20  17  88 SW6       30.19R WCI  12
6HR MIN TEMP:  20; 6HR MAX TEMP:  22;

APPLETON       CLEAR     16  16 100 SW3       30.16R
CLINTONVILLE   CLEAR      7   3  85 CALM      30.16R
OSHKOSH        PTCLDY    13  10  88 CALM      30.16R
6HR MIN TEMP:  11; 6HR MAX TEMP:  21;

$$

WIZ032>034-041-042-053>061-260700-
SOUTHWEST WISCONSIN

CITY           SKY/WX    TMP DP  RH WIND       PRES   REMARKS
LA CROSSE      CLOUDY    19  14  81 SE5       30.12R WCI  12
6HR MIN TEMP:  17; 6HR MAX TEMP:  24;

SPARTA         CLOUDY    15  14  95 CALM      30.12F
6HR MIN TEMP:  14; 6HR MAX TEMP:  20;

VIROQUA        MOCLDY    15  13  90 SE5       30.08S WCI   7
6HR MIN TEMP:  10; 6HR MAX TEMP:  17;

BOSCOBEL       PTCLDY     8   4  83 CALM      30.14S
6HR MIN TEMP:   8; 6HR MAX TEMP:  18;

PRAIRIE DU CHI PTCLDY    16  12  84 E5        30.12S WCI   9
6HR MIN TEMP:  12; 6HR MAX TEMP:  19;

PLATTEVILLE    CLEAR     15  14  94 CALM      30.12F
6HR MIN TEMP:  14; 6HR MAX TEMP:  19;

$$

WIZ056-057-062-063-064-067-068-260700-
SOUTH CENTRAL WISCONSIN

CITY           SKY/WX    TMP DP  RH WIND       PRES   REMARKS
REEDSBURG      PTCLDY     8   5  90 CALM      30.12F
6HR MIN TEMP:   8; 6HR MAX TEMP:  17;

BARABOO/DELLS  PTCLDY    10   7  90 CALM      30.12S
6HR MIN TEMP:   6; 6HR MAX TEMP:  15;

LONE ROCK      CLEAR     11   5  77 E3        30.15S
6HR MIN TEMP:   6; 6HR MAX TEMP:  16;

MINERAL POINT  CLEAR     16  12  86 SE6       30.10F WCI   7
MADISON        CLEAR     14   9  80 CALM      30.15S
6HR MIN TEMP:  12; 6HR MAX TEMP:  22;

MIDDLETON      CLEAR      8   4  84 CALM      30.14F
6HR MIN TEMP:   5; 6HR MAX TEMP:  17;

WATERTOWN      CLEAR     10   9  95 CALM      30.17R
6HR MIN TEMP:   9; 6HR MAX TEMP:  21;

MONROE         CLEAR     14  12  92 S6        30.13S WCI   5
JANESVILLE     CLEAR      9   5  85 CALM      30.17R FOG
$$

WIZ051-052-058>065-066-070>072-260700-
SOUTHEAST WISCONSIN

CITY           SKY/WX    TMP DP  RH WIND       PRES   REMARKS
MILWAUKEE      CLOUDY    20  15  81 S7        30.18S WCI  11
6HR MIN TEMP:  19; 6HR MAX TEMP:  22;

WAUKESHA       CLEAR     14  12  92 CALM      30.18R
MILWAUKEE/TIMM CLOUDY    21  14  73 S3        30.19R
RACINE         PTCLDY    18  14  84 SW5       30.20S WCI  11
6HR MIN TEMP:  18; 6HR MAX TEMP:  23;

BURLINGTON     CLEAR      8   8  96 CALM      30.17F
6HR MIN TEMP:   8; 6HR MAX TEMP:  19;

KENOSHA        CLEAR     13  11  92 CALM      30.18S FOG
6HR MIN TEMP:  13; 6HR MAX TEMP:  22;

FOND DU LAC    PTCLDY    14  11  87 S3        30.16R
6HR MIN TEMP:  14; 6HR MAX TEMP:  21;

SHEBOYGAN      CLOUDY    21  15  78 S6        30.18R WCI  13
6HR MIN TEMP:  20; 6HR MAX TEMP:  21;

WEST BEND      CLOUDY    21  16  79 S3        30.17R
JUNEAU         PTCLDY    13  12  92 S6        30.17R WCI   4
6HR MIN TEMP:  13; 6HR MAX TEMP:  20;

$$

LSZ147-162-260700-
LAKE SUPERIOR

STATION/POSITION TIME  TEMP    WIND        PRES    WAVE
                       AIR SEA DIR/SP/G            HT/PER
                 (UTC) (F)     (DEG/KT/KT) (MB)    (FT/S)
DEVILS ISLAND    0600   24     210/ 11/ 12 1020.3R
PORT WING        0500   17     150/  2/  3 1019.3R
SAXON HARBOR     0500   12     200/  5/  7 1019.3R
$$

LMZ867-665-643>646-260700-
LAKE MICHIGAN

STATION/POSITION TIME  TEMP    WIND        PRES    WAVE


USA.gov is the U.S. government's official web portal to all federal, state and local government web resources and services.